This is the latest recevied weather packets stored in our database for station/object DM4XI-13. If no packets are shown the sender has not sent any weather packets the latest 10 day(s).
| Time | Temp. | Humidity | Pressure | Rain* | Wind** | Luminosity | Snow |
|---|---|---|---|---|---|---|---|
| 1778156749 | 12.22° C | 76% | 1011.5 hPa | 0 mm | 1.79 m/s, 287° | 230 W/m² | - |
| 1778156688 | 12.22° C | 77% | 1011.5 hPa | 0 mm | 1.79 m/s, 301° | 223 W/m² | - |
| 1778156627 | 12.22° C | 77% | 1011.8 hPa | 0 mm | 1.79 m/s, 314° | 223 W/m² | - |
| 1778156566 | 12.22° C | 77% | 1011.5 hPa | 0 mm | 1.34 m/s, 40° | 216 W/m² | - |
| 1778156504 | 12.22° C | 77% | 1011.6 hPa | 0 mm | 0.45 m/s, 208° | 190 W/m² | - |
| 1778156444 | 12.22° C | 77% | 1011.5 hPa | 0 mm | 1.34 m/s, 246° | 150 W/m² | - |
| 1778156383 | 12.22° C | 76% | 1011.6 hPa | 0 mm | 0.89 m/s, 196° | 114 W/m² | - |
| 1778156322 | 12.22° C | 76% | 1011.6 hPa | 0 mm | 1.34 m/s, 222° | 87 W/m² | - |
| 1778156261 | 12.22° C | 75% | 1011.7 hPa | 0 mm | 1.79 m/s, 250° | 78 W/m² | - |
| 1778156200 | 12.22° C | 75% | 1011.7 hPa | 0 mm | 1.34 m/s, 265° | 81 W/m² | - |
| 1778156139 | 12.78° C | 75% | 1011.4 hPa | 0 mm | 1.79 m/s, 251° | 102 W/m² | - |
| 1778156077 | 12.78° C | 75% | 1011.6 hPa | 0 mm | 0.89 m/s, 254° | 118 W/m² | - |
| 1778156017 | 12.78° C | 74% | 1011.4 hPa | 0 mm | 1.79 m/s, 209° | 115 W/m² | - |
| 1778155955 | 12.78° C | 74% | 1011.5 hPa | 0 mm | 1.34 m/s, 193° | 102 W/m² | - |
| 1778155894 | 13.33° C | 73% | 1011.5 hPa | 0 mm | 1.79 m/s, 288° | 88 W/m² | - |
| 1778155834 | 13.33° C | 72% | 1011.6 hPa | 0 mm | 1.79 m/s, 256° | 84 W/m² | - |
| 1778155773 | 13.33° C | 73% | 1011.3 hPa | 0 mm | 0.89 m/s, 230° | 84 W/m² | - |
| 1778155712 | 13.33° C | 72% | 1011.4 hPa | 0 mm | 0.45 m/s, 200° | 88 W/m² | - |
| 1778155651 | 13.33° C | 72% | 1011.4 hPa | 0 mm | 0 m/s | 97 W/m² | - |
| 1778155590 | 13.89° C | 72% | 1011.3 hPa | 0 mm | 0.89 m/s, 309° | 115 W/m² | - |
| 1778155529 | 13.89° C | 72% | 1011.3 hPa | 0 mm | 1.34 m/s, 234° | 142 W/m² | - |
| 1778155467 | 13.89° C | 73% | 1011.3 hPa | 0 mm | 0.45 m/s, 197° | 175 W/m² | - |
| 1778155406 | 13.89° C | 72% | 1011.3 hPa | 0 mm | 0.45 m/s, 180° | 212 W/m² | - |
| 1778155346 | 13.89° C | 72% | 1011.2 hPa | 0 mm | 0.89 m/s, 197° | 241 W/m² | - |
| 1778155285 | 13.89° C | 71% | 1011.1 hPa | 0 mm | 0.45 m/s, 221° | 276 W/m² | - |
* Rain latest hour (hover to see other rain measurements)
** Current wind speed in m/s (hover to see current wind gust speed)